Wallops Island, VA

3:51 PM EST on December 06, 2019 (GMT -0500)
Wallops Flight Facility

Weather History for KWAL - October, 2019

Change the Weather History Date:

Tuesday, October 8, 2019

  Actual Average Record
Temperature  
Mean Temperature 66 °F 62 °F  
Max Temperature 71 °F 71 °F 84 °F (2007)
Min Temperature 61 °F 53 °F 35 °F (2001)
Degree Days  
Heating Degree Days 0    
Month to date heating degree days 6  
Since 1 July heating degree days 15  
Cooling Degree Days 1    
Month to date cooling degree days 53  
Year to date cooling degree days 1800  
Growing Degree Days 14 (Base 50)    
Moisture  
Dew Point 61 °F    
Average Humidity 86    
Maximum Humidity 93    
Minimum Humidity 78    
Precipitation  
Precipitation T in 0.10 in 3.64 in (1996)
Month to date precipitation T 0.83  
Year to date precipitation 34.33 32.20  
Sea Level Pressure  
Sea Level Pressure 30.09 in    
Wind  
Wind Speed 15 mph (NNE)    
Max Wind Speed 26 mph    
Max Gust Speed 35 mph    
Visibility 10 miles    
Events Rain    
T = Trace of Precipitation, MM = Missing Value Source: NWS Daily Summary

Daily Weather History Graph

Daily Weather History Graph

Search for Another Location

Airport or City:

Astronomy

Oct. 08, 2019 Rise Set
Actual Time 7:03 AM EDT 6:34 PM EDT
Civil Twilight 6:37 AM EDT 7:00 PM EDT
Nautical Twilight 6:06 AM EDT 7:31 PM EDT
Astronomical Twilight 5:36 AM EDT 8:01 PM EDT
Moon 4:26 PM EDT (10/8) 1:57 AM EDT (10/8)
Length of Visible Light 12h 23m
Length of Day
11h 31m
Waxing Gibbous, 77% of the Moon is Illuminated
Oct 8
Waxing Gibbous
Oct 13
Full
Oct 21
Last Quarter
Oct 27
New
Nov 4
First Quarter

Hourly Weather History & Observations

Time (EDT) Temp. Dew Point Humidity Pressure Visibility Wind Dir Wind Speed Gust Speed Precip Events Conditions
12:54 AM 68.0 °F 66.9 °F 96% 30.08 in 10.0 mi East 4.6 mph - N/A   Scattered Clouds
1:54 AM 70.0 °F 66.9 °F 90% 30.07 in 10.0 mi NNE 3.5 mph - N/A   Overcast
2:54 AM 68.0 °F 66.0 °F 93% 30.06 in 10.0 mi North 5.8 mph - N/A   Overcast
3:54 AM 66.9 °F 64.9 °F 93% 30.07 in 10.0 mi NNE 9.2 mph 18.4 mph N/A   Overcast
4:26 AM 64.9 °F 62.1 °F 90% 30.08 in 10.0 mi North 12.7 mph - N/A   Overcast
4:51 AM 64.4 °F 62.6 °F 94% 30.09 in 10.0 mi NNE 13.8 mph - N/A   Overcast
4:54 AM 64.9 °F 63.0 °F 93% 30.09 in 10.0 mi NNE 12.7 mph - N/A   Overcast
5:07 AM 66.0 °F 63.0 °F 90% 30.10 in 10.0 mi NNE 11.5 mph 20.7 mph N/A   Overcast
5:25 AM 66.0 °F 62.1 °F 87% 30.09 in 10.0 mi NE 20.7 mph 27.6 mph N/A   Overcast
5:54 AM 64.9 °F 62.1 °F 90% 30.08 in 10.0 mi NNE 17.3 mph 25.3 mph 0.00 in   Overcast
6:54 AM 64.9 °F 62.1 °F 90% 30.10 in 10.0 mi NNE 17.3 mph - 0.00 in   Overcast
7:54 AM 66.0 °F 62.1 °F 87% 30.10 in 10.0 mi NNE 20.7 mph 27.6 mph 0.00 in Rain Light Rain
8:05 AM 66.0 °F 62.1 °F 87% 30.11 in 10.0 mi NNE 20.7 mph 28.8 mph 0.00 in Rain Light Rain
8:54 AM 66.0 °F 61.0 °F 84% 30.11 in 10.0 mi NE 18.4 mph 28.8 mph 0.00 in   Overcast
9:54 AM 66.0 °F 61.0 °F 84% 30.10 in 10.0 mi NNE 17.3 mph 28.8 mph 0.00 in Rain Light Rain
10:54 AM 66.0 °F 61.0 °F 84% 30.10 in 10.0 mi NE 19.6 mph 31.1 mph 0.00 in   Overcast
11:54 AM 66.9 °F 62.1 °F 84% 30.08 in 10.0 mi NNE 23.0 mph 33.4 mph 0.00 in   Overcast
12:31 PM 66.9 °F 61.0 °F 81% 30.09 in 10.0 mi NNE 18.4 mph 32.2 mph N/A   Overcast
12:54 PM 66.0 °F 62.1 °F 87% 30.09 in 10.0 mi NNE 18.4 mph 32.2 mph 0.00 in Rain Light Rain
1:54 PM 64.9 °F 62.1 °F 90% 30.07 in 7.0 mi NNE 16.1 mph 24.2 mph 0.00 in   Overcast
2:54 PM 66.0 °F 61.0 °F 84% 30.05 in 10.0 mi NNE 19.6 mph 28.8 mph N/A   Overcast
3:54 PM 64.9 °F 60.1 °F 84% 30.07 in 9.0 mi NNE 16.1 mph 23.0 mph N/A   Overcast
4:26 PM 64.0 °F 57.9 °F 80% 30.08 in 10.0 mi NNE 19.6 mph 27.6 mph N/A   Overcast
4:54 PM 64.0 °F 57.0 °F 78% 30.08 in 10.0 mi NNE 17.3 mph 28.8 mph N/A   Overcast
5:54 PM 63.0 °F 57.0 °F 81% 30.08 in 10.0 mi NNE 16.1 mph 25.3 mph N/A   Overcast
6:54 PM 63.0 °F 57.0 °F 81% 30.09 in 10.0 mi North 15.0 mph 24.2 mph N/A   Overcast
7:54 PM 63.0 °F 55.9 °F 78% 30.10 in 10.0 mi North 12.7 mph - N/A   Overcast
8:54 PM 63.0 °F 55.9 °F 78% 30.10 in 10.0 mi NNE 13.8 mph - N/A   Overcast
9:54 PM 62.1 °F 55.0 °F 78% 30.10 in 10.0 mi North 15.0 mph 21.9 mph N/A   Overcast
10:54 PM 62.1 °F 55.0 °F 78% 30.12 in 10.0 mi North 12.7 mph 20.7 mph N/A   Overcast
11:54 PM 61.0 °F 55.0 °F 81% 30.11 in 10.0 mi North 13.8 mph 20.7 mph N/A   Overcast